Regional Weather Roundup
Issued by NWS Kansas City/Pleasant Hill, MO

Home | Current Version | Previous Version | Text Only | Print | Product List | Glossary On
Versions: 1 2 3 4 5 6 7 8 9 10 11 12 13 14 15 16 17 18 19 20 21 22 23 24 25 26 27 28 29 30 31 32 33 34 35 36 37 38 39 40 41 42 43 44 45 46 47 48 49 50
000
ASUS43 KEAX 231611
RWREAX

WEATHER ROUNDUP FOR EASTERN KANSAS AND NORTHWEST MISSOURI
NATIONAL WEATHER SERVICE KANSAS CITY/PLEASANT HILL MO
1100 AM CDT WED JUL 23 2014

KSZ040-057-103>105-MOZ028-029-037-043-231700-
...KANSAS CITY METROPOLITAN AREA...

CITY           SKY/WX    TMP DP  RH WIND       PRES   REMARKS
K.C. INTL      PTSUNNY   80  67  64 N8        30.17R
K.C. DOWNTOWN  SUNNY     84  67  56 N7        30.15R
LEES SUMMIT    SUNNY     82  67  60 N10       30.15R
OLATHE - IXD   SUNNY     84  67  56 N12       30.16R
OLATHE - OJC   SUNNY     82  66  58 N10       30.16R
LAWRENCE       MOSUNNY   84  68  58 NE5       30.16R

$$

MOZ001>008-011>017-020>025-030>033-038>040-044>046-053-054-231700-
...NORTHERN AND CENTRAL MISSOURI...

CITY           SKY/WX    TMP DP  RH WIND       PRES   REMARKS
ST. JOSEPH     MOSUNNY   79  67  66 NE7       30.19R
MOSBY          SUNNY     81  64  57 N8        30.15R
WHITEMAN AFB   SUNNY     81  62  51 NE9       30.10F
CLINTON        SUNNY     82  72  69 NE13      30.11S
SEDALIA        SUNNY     84  71  65 NE8       30.11F
WARSAW         NOT AVBL
MARSHALL       SUNNY     84  72  65 N8        30.13R HAZE
CHILLICOTHE      N/A     82  66  58 NE12      30.16R
MOBERLY        SUNNY     81  68  65 NE9       30.14S
KIRKSVILLE     SUNNY     80  66  62 NE15      30.17R

$$

MOZ041-047>049-056>058-063>065-088>090-097-231700-
...EASTERN AND SOUTHERN MISSOURI...

CITY           SKY/WX    TMP DP  RH WIND       PRES   REMARKS
ST. LOUIS INTL CLOUDY    80  73  79 N13       30.08R
SPIRIT OF STL  CLOUDY    81  73  76 N12       30.06R
COLUMBIA       MOSUNNY   84  71  65 N9        30.10F
JEFFERSON CITY SUNNY     85  70  60 NE7       30.07F
MEXICO         PTSUNNY   82  75  78 NE9       30.11S
HANNIBAL       CLOUDY    79  66  65 NE7       30.13S
ROLLA          PTSUNNY   84  74  71 N9        30.08F HX  91
OSAGE BEACH    CLOUDY    82  72  69 NE7       30.09S
SPRINGFIELD    CLOUDY    83  77  82 N8        30.10R HX  92
BRANSON        SUNNY     91  75  59 W7        30.09F HX 102
NEVADA         SUNNY     84  73  70 N5        30.11S HX  91
JOPLIN         CLOUDY    83  77  82 N9        30.10R HAZE    HX  92
WEST PLAINS    SUNNY     89  77  67 CALM      30.08S HX 101
MALDEN         PTSUNNY   86  72  62 S9        30.04S HX  92

$$

IAZ060-094-KSZ022-034>040-054-083-096-NEZ052-066-093-231700-
...KANSAS...SOUTHEAST NEBRASKA AND IOWA...

CITY           SKY/WX    TMP DP  RH WIND       PRES   REMARKS
TOPEKA         PTSUNNY   82  67  60 NW7       30.18R
MANHATTAN      CLOUDY    77  64  64 E14       30.16F
EMPORIA        TSTM      69  68  96 NE16      30.17F
CHANUTE        MOSUNNY   86  74  67 N8        30.12R HX  94
WICHITA        CLOUDY    78  68  71 NE15      30.17S
OMAHA          MOSUNNY   78  59  51 N7        30.25R
LINCOLN        SUNNY     80  59  48 NE13      30.25F
FALLS CITY     MOSUNNY   79  67  66 VRB7      30.22R
LAMONI         MOSUNNY   78  66  66 N7        30.20R
DES MOINES     PTSUNNY   80  63  55 MISG      30.21R

$$



USA.gov is the U.S. government's official web portal to all federal, state and local government web resources and services.